Flag for U.S.A. Weather past 2 weeks in Mountain View, California, U.S.A.

Now
43 °F

Clear.


Feels Like: 43 °F
Forecast: 44 / 61 °F
Wind: No wind

Location: Moffett Field

Current Time: Mar 1, 2015 at 5:12:14 AM

Latest Report: Mar 1, 2015 at 3:56 AM


Visibility: 10 mi

Pressure: 29.96 "Hg

Humidity: 97%

Dew point: 42 °F

Location of Mountain ViewLocation

Historic Weather in Mountain View — Graph

°F

Mountain View temperature yesterday

Maximum temperature yesterday: 59 °F (at 2:56 PM)
Minimum temperature yesterday: 46 °F (at 4:56 AM)
Average temperature yesterday: 52 °F

Past Weeks' High & Low Weather Summary

 TemperatureHumidityPressure
High74 °F (Feb 15, 2:56 PM)97% (Mar 1, 3:56 AM)30.38 "Hg (Mar 1, 3:56 AM)
Low38 °F (Feb 24, 6:56 AM)17% (Feb 24, 11:56 AM)29.75 "Hg (Feb 28, 3:56 AM)
Average56 °F67%30.04 "Hg
* Reported Feb 14 3:56 AM — Mar 1 3:56 AM, Mountain View, Weather by CustomWeather, © 2015

Note: Actual official high and low records may vary slightly from our data, if they occured in-between our weather recording intervals... More about our weather records

Advertising

Mountain View weather history for previous 24 hours

 ConditionsComfort  
Time TempWeatherWind HumidityBarometerVisibility
3:56 AM
Sun, Mar 1
43 °FClear.No wind97%29.96 "Hg10 mi
2:56 AM45 °FClear.No wind93%29.96 "Hg10 mi
1:56 AM44 °FClear.3 mph89%29.96 "Hg10 mi
12:56 AM46 °FClear.No wind89%29.95 "Hg10 mi
11:56 PM
Sat, Feb 28
47 °FClear.No wind86%29.94 "Hg10 mi
10:56 PM48 °FClear.No wind86%29.93 "Hg10 mi
9:56 PM50 °FClear.No wind86%29.92 "Hg10 mi
8:56 PM51 °FClear.3 mph80%29.90 "Hg10 mi
7:56 PM51 °FMostly cloudy.No wind80%29.89 "Hg10 mi
6:56 PM50 °FPassing clouds.No wind80%29.86 "Hg10 mi
5:56 PM52 °FLight rain. Mostly cloudy.No wind75%29.85 "Hg10 mi
4:56 PM53 °FPartly sunny.6 mph66%29.83 "Hg10 mi
3:56 PM55 °FPartly sunny.10 mph55%29.83 "Hg10 mi
2:56 PM59 °FSunny.5 mph56%29.80 "Hg10 mi
1:56 PM56 °FPartly sunny.6 mph62%29.80 "Hg10 mi
12:56 PM56 °FPartly sunny.6 mph60%29.81 "Hg10 mi
11:56 AM58 °FSunny.3 mph65%29.82 "Hg10 mi
10:56 AM53 °FLight rain. Mostly cloudy.6 mph77%29.83 "Hg10 mi
9:56 AM56 °FScattered clouds.5 mph67%29.81 "Hg10 mi
8:56 AM54 °FScattered clouds.3 mph69%29.80 "Hg10 mi
7:56 AM51 °FScattered clouds.No wind83%29.79 "Hg10 mi
6:56 AM48 °FSunny.3 mph83%29.77 "Hg10 mi
5:56 AM50 °FLight rain. Overcast.No wind80%29.77 "Hg7 mi
Weather by CustomWeather, © 2015

See weather overviewHow to use our weather pages